Tracking 30692 objects as of 16-Jun-2025
HD Live streaming from Space Station
objects crossing your sky now

STARLINK-30130

Track STARLINK-30130 now!
10-day predictions
STARLINK-30130 is classified as:


NORAD ID: 56697
Int'l Code: 2023-067K
Perigee: 565.4 km
Apogee: 567.1 km
Inclination: 43.0 °
Period: 95.8 minutes
Semi major axis: 6937 km
RCS: Unknown
Launch date: May 19, 2023
Source: United States (US)
Launch site: AIR FORCE EASTERN TEST RANGE (AFETR)
Your satellite tracking list
Your tracking list is empty




NASA's NSSDC Master Catalog

Two Line Element Set (TLE):
1 56697U 23067K   25166.65826896 -.00000865  00000-0 -48975-4 0  9999
2 56697  43.0026 285.2579 0001195 269.0746  90.9959 15.02526304115239
Source of the keplerian elements: AFSPC